This demonstration page uses our WeatherBlox Daily Observations layout. Learn more.

Left ArrowRight Arrow

Hourly Observations for July 19, 2020

Temp ( °F °C ) Dew Point ( °F °C ) Humidity (%) Winds ( mph kmh ) Pressure ( in mb ) Visibility ( mi km ) Precip ( " mm )
12:15 am 00:15 Clear 77 25 70 21 79 79 Calm 30.03 1017 10 16.0934 0 0
12:35 am 00:35 Clear 75 24 70 21 83 83 Calm 30.03 1017 10 16.0934 0 0
12:55 am 00:55 Clear 73 23 70 21 89 89 Calm 30.03 1017 10 16.0934 0 0
1:15 am 01:15 Clear 73 23 70 21 89 89 Calm 30.02 1016 10 16.0934 0 0
1:35 am 01:35 Clear 73 23 70 21 89 89 Calm 30.02 1016 10 16.0934 0 0
1:55 am 01:55 Clear 73 23 68 20 83 83 Calm 30.01 1016 10 16.0934 0 0
2:15 am 02:15 Clear 73 23 70 21 89 89 W 3 6 30.01 1016 10 16.0934 0 0
2:35 am 02:35 Clear 72 22 68 20 88 88 W 3 6 30.01 1016 10 16.0934 0 0
2:55 am 02:55 Clear 72 22 70 21 94 94 W 5 7 30.01 1016 10 16.0934 0 0
3:15 am 03:15 Clear 75 24 70 21 83 83 Calm 30 1016 10 16.0934 0 0
3:35 am 03:35 Clear 73 23 68 20 83 83 Calm 30 1016 10 16.0934 0 0
3:55 am 03:55 Clear 73 23 70 21 89 89 Calm 29.99 1015 10 16.0934 0 0
4:15 am 04:15 Clear 72 22 70 21 94 94 Calm 29.99 1016 10 16.0934 0 0
4:35 am 04:35 Clear 73 23 70 21 89 89 Calm 29.99 1015 10 16.0934 0 0
4:55 am 04:55 Clear 72 22 70 21 94 94 Calm 29.99 1016 10 16.0934 0 0
5:15 am 05:15 Partly Cloudy 72 22 70 21 94 94 Calm 29.99 1016 10 16.0934 0 0
5:35 am 05:35 Cloudy 72 22 70 21 94 94 Calm 30 1016 10 16.0934 0 0
5:55 am 05:55 Cloudy 72 22 70 21 94 94 Calm 30 1016 10 16.0934 0 0
6:15 am 06:15 Mostly Cloudy 72 22 68 20 88 88 Calm 30 1016 10 16.0934 0 0
6:35 am 06:35 Partly Cloudy 73 23 70 21 89 89 Calm 30 1016 10 16.0934 0 0
6:55 am 06:55 Sunny 73 23 70 21 89 89 Calm 30 1016 10 16.0934 0 0
7:15 am 07:15 Sunny 73 23 70 21 89 89 Calm 30 1016 10 16.0934 0 0
7:35 am 07:35 Sunny 75 24 70 21 83 83 Calm 30.01 1016 10 16.0934 0 0
7:55 am 07:55 Sunny 77 25 72 22 83 83 Calm 30 1016 10 16.0934 0 0
8:15 am 08:15 Mostly Cloudy 79 26 72 22 79 79 Calm 30 1016 10 16.0934 0 0
8:35 am 08:35 Mostly Cloudy 81 27 72 22 74 74 Calm 29.99 1016 10 16.0934 0 0
8:55 am 08:55 Mostly Cloudy 81 27 72 22 74 74 Calm 29.99 1016 10 16.0934 0 0
9:15 am 09:15 Mostly Cloudy 82 28 72 22 70 70 Calm 29.98 1015 10 16.0934 0 0
9:35 am 09:35 Partly Cloudy 84 29 73 23 70 70 Calm 29.98 1015 10 16.0934 0 0
9:55 am 09:55 Partly Cloudy 84 29 73 23 70 70 Calm 29.98 1015 10 16.0934 0 0
10:15 am 10:15 Partly Cloudy 86 30 73 23 66 66 Calm 29.98 1015 10 16.0934 0 0
10:35 am 10:35 Partly Cloudy 88 31 73 23 62 62 W 5 7 29.99 1015 10 16.0934 0 0
10:55 am 10:55 Partly Cloudy 90 32 73 23 59 59 W 5 7 29.98 1015 10 16.0934 0 0
11:15 am 11:15 Partly Cloudy 91 33 72 22 52 52 W 7 11 29.97 1015 10 16.0934 0 0
11:35 am 11:35 Partly Cloudy 91 33 72 22 52 52 SW 7 11 29.97 1015 10 16.0934 0 0
11:55 am 11:55 Sunny 91 33 73 23 56 56 WSW 7 11 29.95 1014 10 16.0934 0 0
12:15 pm 12:15 Sunny 91 33 72 22 52 52 W 7 11 29.95 1014 10 16.0934 0 0
12:35 pm 12:35 Sunny 95 35 72 22 47 47 S 3 6 29.95 1014 10 16.0934 0 0
12:55 pm 12:55 Partly Cloudy 95 35 72 22 47 47 WSW 6 9 29.94 1014 10 16.0934 0 0
1:15 pm 13:15 Partly Cloudy 95 35 72 22 47 47 W 10 17 29.94 1014 10 16.0934 0 0
1:35 pm 13:35 Partly Cloudy 93 34 72 22 49 49 WNW 3 6 29.93 1014 10 16.0934 0 0
1:55 pm 13:55 Partly Cloudy 95 35 72 22 47 47 WNW 7 11 29.93 1014 10 16.0934 0 0
2:15 pm 14:15 Mostly Cloudy 91 33 72 22 52 52 NW 5 7 29.92 1013 10 16.0934 0 0
2:35 pm 14:35 Partly Cloudy 95 35 72 22 47 47 Calm 29.92 1013 10 16.0934 0 0
2:55 pm 14:55 Partly Cloudy 95 35 72 22 47 47 NW 3 6 29.92 1013 10 16.0934 0 0
3:15 pm 15:15 Partly Cloudy 95 35 72 22 47 47 NNW 7 11 29.91 1013 10 16.0934 0 0
3:35 pm 15:35 Sunny 97 36 70 21 42 42 Calm 29.9 1013 N/A 0 0
3:55 pm 15:55 Sunny 97 36 70 21 42 42 W 7 11 29.89 1012 N/A 0 0
4:15 pm 16:15 Sunny 97 36 70 21 42 42 SW 7 11 29.88 1012 10 16.0934 0 0
4:35 pm 16:35 Sunny 97 36 72 22 44 44 SSW 8 13 29.88 1012 10 16.0934 0 0
4:55 pm 16:55 Partly Cloudy 97 36 72 22 44 44 WSW 7 11 29.88 1012 N/A 0 0
5:15 pm 17:15 Partly Cloudy 97 36 72 22 44 44 SSW 6 9 29.88 1012 N/A 0 0
5:35 pm 17:35 Sunny 97 36 70 21 42 42 WSW 5 7 29.88 1012 N/A 0 0
5:55 pm 17:55 Sunny 97 36 72 22 44 44 SW 7 11 29.88 1012 10 16.0934 0 0
6:15 pm 18:15 Sunny 97 36 72 22 44 44 SW 8 13 29.88 1012 N/A 0 0
6:35 pm 18:35 Partly Cloudy 95 35 72 22 47 47 SSW 5 7 29.87 1012 N/A 0 0
6:55 pm 18:55 Mostly Cloudy 95 35 73 23 50 50 Calm 29.87 1012 N/A 0 0
7:15 pm 19:15 Partly Cloudy 95 35 73 23 50 50 S 5 7 29.86 1011 10 16.0934 0 0
7:35 pm 19:35 Partly Cloudy 93 34 73 23 53 53 SSW 6 9 29.86 1011 N/A 0 0
7:55 pm 19:55 Partly Cloudy 91 33 73 23 56 56 SW 5 7 29.86 1011 10 16.0934 0 0
8:15 pm 20:15 Partly Cloudy 91 33 73 23 56 56 WSW 5 7 29.87 1012 10 16.0934 0 0
8:35 pm 20:35 Partly Cloudy 90 32 73 23 59 59 WSW 5 7 29.88 1012 10 16.0934 0 0
8:55 pm 20:55 Clear 88 31 73 23 62 62 WSW 5 7 29.89 1012 10 16.0934 0 0
9:15 pm 21:15 Clear 86 30 73 23 66 66 W 5 7 29.9 1012 10 16.0934 0 0
9:35 pm 21:35 Clear 86 30 73 23 66 66 W 6 9 29.91 1013 10 16.0934 0 0
9:55 pm 21:55 Clear 86 30 73 23 66 66 WSW 3 6 29.91 1013 10 16.0934 0 0
10:15 pm 22:15 Clear 86 30 73 23 66 66 WSW 5 7 29.91 1013 10 16.0934 0 0
10:35 pm 22:35 Clear 84 29 73 23 70 70 W 5 7 29.91 1013 10 16.0934 0 0
10:55 pm 22:55 Clear 84 29 73 23 70 70 WSW 5 7 29.89 1012 10 16.0934 0 0
11:15 pm 23:15 Clear 82 28 73 23 74 74 WSW 5 7 29.89 1012 10 16.0934 0 0
11:35 pm 23:35 Clear 82 28 73 23 74 74 SW 3 6 29.88 1012 10 16.0934 0 0
11:55 pm 23:55 Clear 82 28 73 23 74 74 SW 5 7 29.88 1012 10 16.0934 0 0

Powered by AerisWeather